| time (UTC) | temp C | wind direction | speed KPH | gust KPH | rain 1hr cm | rain 24hr cm | rain mn cm | humidity % | barometer mb |
| 20260506134550 | 15 | 158 | 6.4 | 29.0 | 0.00 | 0.00 | 0.00 | 64 | 1029.2 |
| 20260506134036 | 15 | 75 | 8.0 | 29.0 | 0.00 | 0.00 | 0.00 | 64 | 1029.1 |
| 20260506133537 | 15 | 124 | 6.4 | 20.9 | 0.00 | 0.00 | 0.00 | 64 | 1029.2 |
| 20260506133056 | 15 | 76 | 8.0 | 20.9 | 0.00 | 0.00 | 0.00 | 64 | 1029.1 |
| 20260506132536 | 15 | 130 | 8.0 | 22.5 | 0.00 | 0.00 | 0.00 | 64 | 1029.1 |
| 20260506132037 | 15 | 126 | 9.7 | 27.4 | 0.00 | 0.00 | 0.00 | 64 | 1029.1 |
| 20260506131544 | 15 | 52 | 9.7 | 27.4 | 0.00 | 0.00 | 0.00 | 64 | 1029.1 |
| 20260506131037 | 15 | 110 | 8.0 | 24.1 | 0.00 | 0.00 | 0.00 | 64 | 1029.1 |
| 20260506130536 | 15 | 94 | 8.0 | 24.1 | 0.00 | 0.00 | 0.00 | 64 | 1029.1 |
| 20260506130101 | 15 | 127 | 8.0 | 24.1 | 0.00 | 0.00 | 0.00 | 64 | 1029.0 |
| 20260506125536 | 15 | 99 | 8.0 | 25.7 | 0.00 | 0.00 | 0.00 | 63 | 1028.9 |
| 20260506125036 | 15 | 33 | 6.4 | 25.7 | 0.00 | 0.00 | 0.00 | 64 | 1029.1 |
| 20260506124549 | 15 | 52 | 8.0 | 24.1 | 0.00 | 0.00 | 0.00 | 63 | 1028.9 |
| 20260506124036 | 15 | 62 | 9.7 | 27.4 | 0.00 | 0.00 | 0.00 | 63 | 1029.1 |
| 20260506123536 | 15 | 116 | 6.4 | 27.4 | 0.00 | 0.00 | 0.00 | 62 | 1029.1 |
| 20260506123047 | 15 | 103 | 8.0 | 27.4 | 0.00 | 0.00 | 0.00 | 62 | 1028.9 |
| 20260506122537 | 15 | 77 | 9.7 | 24.1 | 0.00 | 0.00 | 0.00 | 62 | 1028.9 |
| 20260506122036 | 15 | 122 | 9.7 | 24.1 | 0.00 | 0.00 | 0.00 | 63 | 1029.1 |
| 20260506121547 | 15 | 106 | 8.0 | 24.1 | 0.00 | 0.00 | 0.00 | 63 | 1029.1 |
| 20260506121036 | 15 | 121 | 6.4 | 19.3 | 0.00 | 0.00 | 0.00 | 63 | 1029.1 |
| 20260506120536 | 15 | 96 | 8.0 | 24.1 | 0.00 | 0.00 | 0.00 | 64 | 1029.0 |
| 20260506120050 | 15 | 78 | 6.4 | 24.1 | 0.00 | 0.00 | 0.00 | 64 | 1028.9 |
| 20260506115535 | 15 | 136 | 4.8 | 17.7 | 0.00 | 0.00 | 0.00 | 64 | 1029.0 |
| 20260506115036 | 15 | 66 | 4.8 | 17.7 | 0.00 | 0.00 | 0.00 | 65 | 1029.1 |
| 20260506114542 | 15 | 120 | 4.8 | 17.7 | 0.00 | 0.00 | 0.00 | 65 | 1028.9 |
| 20260506114035 | 15 | 36 | 3.2 | 12.9 | 0.00 | 0.00 | 0.00 | 65 | 1028.9 |
| 20260506113535 | 15 | 124 | 1.6 | 8.0 | 0.00 | 0.00 | 0.00 | 66 | 1028.9 |
| 20260506113100 | 15 | 156 | 3.2 | 11.3 | 0.00 | 0.00 | 0.00 | 66 | 1029.0 |
| 20260506112537 | 15 | 97 | 1.6 | 11.3 | 0.00 | 0.00 | 0.00 | 65 | 1028.8 |
| 20260506112036 | 15 | 119 | 1.6 | 11.3 | 0.00 | 0.00 | 0.00 | 66 | 1028.9 |
| 20260506111538 | 15 | 0 | 0.0 | 6.4 | 0.00 | 0.00 | 0.00 | 66 | 1028.8 |
| 20260506111036 | 15 | 0 | 1.6 | 8.0 | 0.00 | 0.00 | 0.00 | 66 | 1028.7 |
| 20260506110536 | 15 | 146 | 0.0 | 8.0 | 0.00 | 0.00 | 0.00 | 66 | 1028.7 |
| 20260506110048 | 15 | 83 | 1.6 | 14.5 | 0.00 | 0.00 | 0.00 | 66 | 1028.7 |
| 20260506105536 | 15 | 77 | 1.6 | 14.5 | 0.00 | 0.00 | 0.00 | 65 | 1028.7 |
| 20260506105036 | 16 | 118 | 1.6 | 14.5 | 0.00 | 0.00 | 0.00 | 65 | 1028.7 |
| 20260506104610 | 16 | 116 | 1.6 | 6.4 | 0.00 | 0.00 | 0.00 | 65 | 1028.7 |
| 20260506104035 | 16 | 104 | 1.6 | 4.8 | 0.00 | 0.00 | 0.00 | 65 | 1028.7 |
| 20260506103536 | 16 | 149 | 0.0 | 6.4 | 0.00 | 0.00 | 0.00 | 65 | 1028.7 |
| 20260506103042 | 16 | 137 | 1.6 | 6.4 | 0.00 | 0.00 | 0.00 | 65 | 1028.7 |
| 20260506102536 | 16 | 0 | 0.0 | 6.4 | 0.00 | 0.00 | 0.00 | 65 | 1028.6 |
| 20260506102036 | 16 | 0 | 0.0 | 6.4 | 0.00 | 0.00 | 0.00 | 66 | 1028.6 |
| 20260506101549 | 16 | 0 | 0.0 | 6.4 | 0.00 | 0.00 | 0.00 | 66 | 1028.6 |
| 20260506101036 | 16 | 0 | 0.0 | 6.4 | 0.00 | 0.00 | 0.00 | 66 | 1028.5 |
| 20260506100536 | 16 | 131 | 0.0 | 6.4 | 0.00 | 0.00 | 0.00 | 66 | 1028.5 |
| 20260506100046 | 16 | 0 | 0.0 | 6.4 | 0.00 | 0.00 | 0.00 | 66 | 1028.5 |
| 20260506095536 | 16 | 130 | 1.6 | 6.4 | 0.00 | 0.00 | 0.00 | 65 | 1028.4 |
| 20260506095035 | 16 | 153 | 0.0 | 6.4 | 0.00 | 0.00 | 0.00 | 65 | 1028.4 |
| 20260506094540 | 16 | 0 | 0.0 | 6.4 | 0.00 | 0.00 | 0.00 | 65 | 1028.3 |
| 20260506094035 | 16 | 162 | 1.6 | 6.4 | 0.00 | 0.00 | 0.00 | 64 | 1028.3 |
| 20260506093537 | 17 | 0 | 0.0 | 3.2 | 0.00 | 0.00 | 0.00 | 64 | 1028.3 |
| 20260506093043 | 17 | 123 | 0.0 | 4.8 | 0.00 | 0.00 | 0.00 | 64 | 1028.2 |
| 20260506092536 | 17 | 0 | 0.0 | 4.8 | 0.00 | 0.00 | 0.00 | 64 | 1028.1 |
| 20260506092036 | 17 | 139 | 0.0 | 6.4 | 0.00 | 0.00 | 0.00 | 64 | 1028.1 |
| 20260506091539 | 17 | 118 | 0.0 | 8.0 | 0.00 | 0.00 | 0.00 | 63 | 1028.0 |
| 20260506091038 | 17 | 156 | 0.0 | 9.7 | 0.00 | 0.00 | 0.00 | 63 | 1028.0 |
| 20260506090536 | 17 | 116 | 1.6 | 9.7 | 0.00 | 0.00 | 0.00 | 62 | 1028.0 |
| 20260506090048 | 17 | 0 | 0.0 | 6.4 | 0.00 | 0.00 | 0.00 | 61 | 1028.0 |
| 20260506085535 | 18 | 121 | 0.0 | 6.4 | 0.00 | 0.00 | 0.00 | 62 | 1028.0 |
| 20260506085036 | 18 | 0 | 0.0 | 6.4 | 0.00 | 0.00 | 0.00 | 62 | 1027.9 |
| 20260506084555 | 18 | 0 | 0.0 | 6.4 | 0.00 | 0.00 | 0.00 | 61 | 1027.9 |
| 20260506084036 | 18 | 0 | 1.6 | 4.8 | 0.00 | 0.00 | 0.00 | 61 | 1028.0 |
| 20260506083536 | 18 | 0 | 0.0 | 4.8 | 0.00 | 0.00 | 0.00 | 62 | 1028.0 |
| 20260506083047 | 18 | 0 | 0.0 | 8.0 | 0.00 | 0.00 | 0.00 | 61 | 1028.0 |
| 20260506082536 | 19 | 0 | 0.0 | 8.0 | 0.00 | 0.00 | 0.00 | 60 | 1028.0 |
| 20260506082035 | 19 | 139 | 3.2 | 8.0 | 0.00 | 0.00 | 0.00 | 60 | 1028.0 |
| 20260506081542 | 20 | 166 | 1.6 | 6.4 | 0.00 | 0.00 | 0.00 | 58 | 1028.0 |
| 20260506081036 | 20 | 180 | 1.6 | 6.4 | 0.00 | 0.00 | 0.00 | 58 | 1027.9 |
| 20260506080538 | 20 | 117 | 1.6 | 14.5 | 0.00 | 0.00 | 0.00 | 57 | 1027.8 |
| 20260506073048 | 21 | 79 | 8.0 | 14.5 | 0.00 | 0.00 | 0.00 | 54 | 1027.8 |
| 20260506072536 | 21 | 192 | 0.0 | 20.9 | 0.00 | 0.00 | 0.00 | 54 | 1027.8 |
| 20260506072036 | 21 | 52 | 4.8 | 20.9 | 0.00 | 0.00 | 0.00 | 54 | 1027.8 |
| 20260506071545 | 21 | 84 | 4.8 | 20.9 | 0.00 | 0.00 | 0.00 | 53 | 1027.9 |
| 20260506071036 | 21 | 63 | 6.4 | 22.5 | 0.00 | 0.00 | 0.00 | 54 | 1027.8 |
| 20260506070537 | 21 | 48 | 3.2 | 22.5 | 0.00 | 0.00 | 0.00 | 54 | 1027.9 |
| 20260506062036 | 21 | 12 | 3.2 | 16.1 | 0.00 | 0.00 | 0.00 | 55 | 1027.8 |
| 20260506061539 | 21 | 62 | 4.8 | 20.9 | 0.00 | 0.00 | 0.00 | 54 | 1027.9 |
| 20260506061037 | 21 | 104 | 4.8 | 22.5 | 0.00 | 0.00 | 0.00 | 55 | 1028.0 |
| 20260506060538 | 20 | 49 | 4.8 | 22.5 | 0.00 | 0.00 | 0.00 | 55 | 1028.0 |
| 20260506051036 | 21 | 45 | 6.4 | 20.9 | 0.00 | 0.00 | 0.00 | 57 | 1028.2 |
| 20260506050537 | 21 | 22 | 3.2 | 14.5 | 0.00 | 0.00 | 0.00 | 57 | 1028.2 |
| 20260506045036 | 21 | 31 | 4.8 | 12.9 | 0.00 | 0.00 | 0.00 | 58 | 1028.3 |
| 20260506044550 | 20 | 355 | 1.6 | 11.3 | 0.00 | 0.00 | 0.00 | 58 | 1028.4 |
| 20260506044036 | 20 | 49 | 3.2 | 16.1 | 0.00 | 0.00 | 0.00 | 59 | 1028.5 |
| 20260506043536 | 20 | 22 | 3.2 | 16.1 | 0.00 | 0.00 | 0.00 | 59 | 1028.6 |
| 20260506043052 | 20 | 72 | 6.4 | 17.7 | 0.00 | 0.00 | 0.00 | 60 | 1028.7 |
| 20260506042536 | 20 | 106 | 6.4 | 19.3 | 0.00 | 0.00 | 0.00 | 59 | 1028.7 |
| 20260506042037 | 20 | 34 | 8.0 | 25.7 | 0.00 | 0.00 | 0.00 | 60 | 1028.7 |
| 20260506041553 | 19 | 81 | 12.9 | 25.7 | 0.00 | 0.00 | 0.00 | 60 | 1028.8 |
| 20260506041035 | 20 | 124 | 9.7 | 25.7 | 0.00 | 0.00 | 0.00 | 60 | 1028.8 |
| 20260506040535 | 20 | 75 | 8.0 | 25.7 | 0.00 | 0.00 | 0.00 | 61 | 1028.9 |
| 20260506040047 | 19 | 59 | 11.3 | 19.3 | 0.00 | 0.00 | 0.00 | 60 | 1029.0 |
| 20260506035536 | 20 | 95 | 6.4 | 25.7 | 0.00 | 0.00 | 0.00 | 60 | 1029.1 |
| 20260506035035 | 19 | 78 | 8.0 | 25.7 | 0.00 | 0.00 | 0.00 | 61 | 1029.0 |
| 20260506034547 | 18 | 79 | 11.3 | 25.7 | 0.00 | 0.00 | 0.00 | 62 | 1029.1 |
| 20260506034035 | 18 | 29 | 8.0 | 22.5 | 0.00 | 0.00 | 0.00 | 62 | 1029.1 |
| 20260506033536 | 18 | 60 | 11.3 | 22.5 | 0.00 | 0.00 | 0.00 | 63 | 1029.2 |
| 20260506033037 | 18 | 77 | 11.3 | 29.0 | 0.00 | 0.00 | 0.00 | 64 | 1029.2 |
| 20260506032536 | 18 | 124 | 9.7 | 29.0 | 0.00 | 0.00 | 0.00 | 65 | 1029.2 |
| 20260506032037 | 18 | 134 | 9.7 | 27.4 | 0.00 | 0.00 | 0.00 | 64 | 1029.2 |
| 20260506031550 | 18 | 81 | 12.9 | 27.4 | 0.00 | 0.00 | 0.00 | 64 | 1029.3 |
| 20260506031038 | 18 | 93 | 6.4 | 17.7 | 0.00 | 0.00 | 0.00 | 64 | 1029.4 |
| 20260506030535 | 18 | 72 | 6.4 | 17.7 | 0.00 | 0.00 | 0.00 | 64 | 1029.3 |
| 20260506030041 | 18 | 79 | 6.4 | 22.5 | 0.00 | 0.00 | 0.00 | 65 | 1029.3 |
| 20260506025535 | 18 | 100 | 8.0 | 22.5 | 0.00 | 0.00 | 0.00 | 66 | 1029.3 |
| 20260506025035 | 17 | 104 | 9.7 | 25.7 | 0.00 | 0.00 | 0.00 | 67 | 1029.2 |
| 20260506024546 | 17 | 81 | 8.0 | 25.7 | 0.00 | 0.00 | 0.00 | 67 | 1029.3 |
| 20260506024036 | 17 | 44 | 9.7 | 25.7 | 0.00 | 0.00 | 0.00 | 68 | 1029.4 |
| 20260506023537 | 17 | 88 | 11.3 | 27.4 | 0.00 | 0.00 | 0.00 | 67 | 1029.3 |
| 20260506023046 | 17 | 120 | 9.7 | 27.4 | 0.00 | 0.00 | 0.00 | 68 | 1029.4 |
| 20260506022536 | 17 | 104 | 9.7 | 25.7 | 0.00 | 0.00 | 0.00 | 69 | 1029.5 |
| 20260506022036 | 16 | 83 | 9.7 | 24.1 | 0.00 | 0.00 | 0.00 | 70 | 1029.4 |
| 20260506021553 | 16 | 110 | 9.7 | 24.1 | 0.00 | 0.00 | 0.00 | 70 | 1029.4 |
| 20260506021036 | 16 | 77 | 11.3 | 24.1 | 0.00 | 0.00 | 0.00 | 71 | 1029.5 |
| 20260506020536 | 16 | 101 | 11.3 | 24.1 | 0.00 | 0.00 | 0.00 | 72 | 1029.5 |
| 20260506020044 | 16 | 106 | 9.7 | 24.1 | 0.00 | 0.00 | 0.00 | 72 | 1029.5 |
| 20260506015536 | 15 | 51 | 11.3 | 25.7 | 0.00 | 0.00 | 0.00 | 73 | 1029.4 |
| 20260506015036 | 15 | 79 | 11.3 | 25.7 | 0.00 | 0.00 | 0.00 | 74 | 1029.5 |
| 20260506014540 | 15 | 104 | 12.9 | 25.7 | 0.00 | 0.00 | 0.00 | 73 | 1029.5 |
| 20260506014039 | 15 | 54 | 8.0 | 25.7 | 0.00 | 0.00 | 0.00 | 74 | 1029.5 |
| 20260506013535 | 14 | 81 | 12.9 | 24.1 | 0.00 | 0.00 | 0.00 | 75 | 1029.5 |
| 20260506013044 | 14 | 121 | 11.3 | 27.4 | 0.00 | 0.00 | 0.00 | 75 | 1029.6 |
| 20260506012537 | 14 | 147 | 12.9 | 27.4 | 0.00 | 0.00 | 0.00 | 76 | 1029.5 |
| 20260506012035 | 14 | 137 | 12.9 | 27.4 | 0.00 | 0.00 | 0.00 | 76 | 1029.6 |
| 20260506011544 | 13 | 91 | 16.1 | 29.0 | 0.00 | 0.00 | 0.00 | 76 | 1029.5 |
| 20260506011040 | 13 | 88 | 12.9 | 29.0 | 0.00 | 0.00 | 0.00 | 77 | 1029.4 |
| 20260506010536 | 13 | 92 | 16.1 | 29.0 | 0.00 | 0.00 | 0.00 | 77 | 1029.3 |
| 20260506010048 | 13 | 88 | 14.5 | 29.0 | 0.00 | 0.00 | 0.00 | 78 | 1029.3 |
| 20260506005536 | 13 | 77 | 16.1 | 29.0 | 0.00 | 0.00 | 0.00 | 78 | 1029.2 |
| 20260506005037 | 12 | 83 | 16.1 | 29.0 | 0.00 | 0.00 | 0.00 | 79 | 1029.1 |
| 20260506004540 | 12 | 70 | 12.9 | 29.0 | 0.00 | 0.00 | 0.00 | 80 | 1029.1 |
| 20260506004035 | 12 | 60 | 14.5 | 29.0 | 0.00 | 0.00 | 0.00 | 80 | 1029.1 |
| 20260506003535 | 12 | 58 | 14.5 | 29.0 | 0.00 | 0.00 | 0.00 | 80 | 1029.1 |
| 20260506003039 | 12 | 85 | 14.5 | 30.6 | 0.00 | 0.00 | 0.00 | 81 | 1029.0 |
| 20260506002535 | 12 | 56 | 11.3 | 30.6 | 0.00 | 0.00 | 0.00 | 82 | 1029.0 |
| 20260506002036 | 11 | 97 | 12.9 | 30.6 | 0.00 | 0.00 | 0.00 | 82 | 1028.8 |
| 20260506001540 | 11 | 102 | 11.3 | 29.0 | 0.00 | 0.00 | 0.00 | 83 | 1028.9 |
| 20260506001035 | 11 | 85 | 14.5 | 29.0 | 0.00 | 0.00 | 0.00 | 83 | 1028.7 |
| 20260506000536 | 11 | 89 | 11.3 | 27.4 | 0.00 | 0.00 | 0.00 | 83 | 1028.7 |
| 20260506000040 | 11 | 93 | 14.5 | 27.4 | 0.00 | 0.00 | 0.00 | 83 | 1028.6 |
| 20260505235535 | 11 | 104 | 11.3 | 25.7 | 0.00 | 0.00 | 0.00 | 83 | 1028.5 |
| 20260505235035 | 11 | 45 | 9.7 | 25.7 | 0.00 | 0.00 | 0.00 | 84 | 1028.5 |
| 20260505234607 | 10 | 160 | 9.7 | 29.0 | 0.00 | 0.00 | 0.00 | 84 | 1028.3 |
| 20260505234035 | 10 | 109 | 11.3 | 29.0 | 0.00 | 0.00 | 0.00 | 84 | 1028.4 |
| 20260505233534 | 10 | 103 | 11.3 | 25.7 | 0.00 | 0.00 | 0.00 | 84 | 1028.4 |
| 20260505233045 | 10 | 95 | 9.7 | 25.7 | 0.00 | 0.00 | 0.00 | 84 | 1028.3 |
| 20260505232538 | 10 | 101 | 11.3 | 24.1 | 0.00 | 0.00 | 0.00 | 84 | 1028.1 |
| 20260505232035 | 10 | 137 | 12.9 | 24.1 | 0.00 | 0.00 | 0.00 | 84 | 1028.3 |
| 20260505231541 | 10 | 111 | 12.9 | 27.4 | 0.00 | 0.00 | 0.00 | 84 | 1028.2 |
| 20260505231038 | 10 | 103 | 11.3 | 27.4 | 0.00 | 0.00 | 0.00 | 84 | 1028.1 |
| 20260505230535 | 10 | 126 | 12.9 | 27.4 | 0.00 | 0.00 | 0.00 | 84 | 1028.1 |
| 20260505230042 | 10 | 95 | 11.3 | 25.7 | 0.00 | 0.00 | 0.00 | 83 | 1027.9 |
| 20260505225537 | 10 | 115 | 12.9 | 25.7 | 0.00 | 0.00 | 0.00 | 83 | 1027.9 |
| 20260505225035 | 10 | 104 | 11.3 | 25.7 | 0.00 | 0.00 | 0.00 | 83 | 1027.9 |
| 20260505224549 | 10 | 72 | 12.9 | 25.7 | 0.00 | 0.00 | 0.00 | 83 | 1027.8 |
| 20260505224036 | 10 | 116 | 11.3 | 27.4 | 0.00 | 0.00 | 0.00 | 83 | 1027.9 |
| 20260505223539 | 10 | 72 | 9.7 | 27.4 | 0.00 | 0.00 | 0.00 | 83 | 1027.7 |
| 20260505223055 | 10 | 81 | 11.3 | 27.4 | 0.00 | 0.00 | 0.00 | 83 | 1027.7 |
| 20260505222536 | 10 | 112 | 9.7 | 30.6 | 0.00 | 0.00 | 0.00 | 83 | 1027.6 |
| 20260505222036 | 10 | 121 | 11.3 | 30.6 | 0.00 | 0.00 | 0.00 | 83 | 1027.6 |
| 20260505221548 | 10 | 96 | 8.0 | 24.1 | 0.00 | 0.00 | 0.00 | 82 | 1027.6 |
| 20260505221035 | 10 | 126 | 9.7 | 24.1 | 0.00 | 0.00 | 0.00 | 82 | 1027.6 |
| 20260505220535 | 10 | 121 | 11.3 | 32.2 | 0.00 | 0.00 | 0.00 | 82 | 1027.6 |
| 20260505220048 | 10 | 118 | 9.7 | 32.2 | 0.00 | 0.00 | 0.00 | 82 | 1027.5 |
| 20260505215535 | 10 | 94 | 12.9 | 25.7 | 0.00 | 0.00 | 0.00 | 82 | 1027.4 |
| 20260505215035 | 10 | 91 | 12.9 | 27.4 | 0.00 | 0.00 | 0.00 | 82 | 1027.4 |
| 20260505214554 | 10 | 68 | 9.7 | 27.4 | 0.00 | 0.00 | 0.00 | 82 | 1027.4 |
| 20260505214035 | 10 | 102 | 11.3 | 24.1 | 0.00 | 0.00 | 0.00 | 82 | 1027.6 |
| 20260505213536 | 11 | 114 | 9.7 | 19.3 | 0.00 | 0.00 | 0.00 | 82 | 1027.4 |
| 20260505213043 | 10 | 110 | 9.7 | 24.1 | 0.00 | 0.00 | 0.00 | 82 | 1027.3 |
| 20260505212536 | 11 | 91 | 9.7 | 24.1 | 0.00 | 0.00 | 0.00 | 82 | 1027.4 |
| 20260505212038 | 11 | 109 | 11.3 | 27.4 | 0.00 | 0.00 | 0.00 | 82 | 1027.4 |
| 20260505211549 | 11 | 98 | 11.3 | 27.4 | 0.00 | 0.00 | 0.00 | 82 | 1027.4 |
| 20260505211036 | 11 | 88 | 11.3 | 32.2 | 0.00 | 0.00 | 0.00 | 82 | 1027.1 |
| 20260505210535 | 11 | 60 | 11.3 | 32.2 | 0.00 | 0.00 | 0.00 | 81 | 1027.1 |
| 20260505210041 | 11 | 107 | 14.5 | 32.2 | 0.00 | 0.00 | 0.00 | 81 | 1027.2 |
| 20260505205536 | 11 | 20 | 14.5 | 29.0 | 0.00 | 0.00 | 0.00 | 81 | 1027.0 |
| 20260505205036 | 11 | 118 | 11.3 | 29.0 | 0.00 | 0.00 | 0.00 | 81 | 1027.1 |
| 20260505204549 | 11 | 93 | 12.9 | 29.0 | 0.00 | 0.00 | 0.00 | 81 | 1027.0 |
| 20260505204035 | 11 | 110 | 12.9 | 25.7 | 0.00 | 0.00 | 0.00 | 81 | 1027.1 |
| 20260505203535 | 11 | 103 | 9.7 | 20.9 | 0.00 | 0.00 | 0.00 | 81 | 1027.0 |
| 20260505203102 | 11 | 115 | 11.3 | 22.5 | 0.00 | 0.00 | 0.00 | 81 | 1027.1 |
| 20260505202536 | 11 | 107 | 9.7 | 22.5 | 0.00 | 0.00 | 0.00 | 81 | 1027.0 |
| 20260505202036 | 11 | 107 | 11.3 | 30.6 | 0.00 | 0.00 | 0.00 | 81 | 1026.8 |
| 20260505201543 | 11 | 71 | 11.3 | 30.6 | 0.00 | 0.00 | 0.00 | 80 | 1026.8 |
| 20260505201037 | 11 | 134 | 11.3 | 29.0 | 0.00 | 0.00 | 0.00 | 80 | 1026.9 |
| 20260505200536 | 11 | 90 | 12.9 | 29.0 | 0.00 | 0.00 | 0.00 | 80 | 1026.8 |
| 20260505200040 | 11 | 107 | 12.9 | 25.7 | 0.00 | 0.00 | 0.00 | 80 | 1026.8 |
| 20260505195539 | 11 | 118 | 11.3 | 27.4 | 0.00 | 0.00 | 0.00 | 80 | 1026.8 |
| 20260505195035 | 11 | 68 | 11.3 | 27.4 | 0.00 | 0.00 | 0.00 | 80 | 1027.0 |
| 20260505194542 | 11 | 126 | 9.7 | 20.9 | 0.00 | 0.00 | 0.00 | 79 | 1026.8 |
| 20260505194037 | 11 | 105 | 9.7 | 22.5 | 0.00 | 0.00 | 0.00 | 79 | 1026.7 |
| 20260505193535 | 11 | 69 | 9.7 | 22.5 | 0.00 | 0.00 | 0.00 | 79 | 1026.8 |
| 20260505193045 | 11 | 83 | 11.3 | 22.5 | 0.00 | 0.00 | 0.00 | 79 | 1026.8 |
| 20260505192538 | 11 | 77 | 9.7 | 24.1 | 0.00 | 0.00 | 0.00 | 79 | 1026.9 |
| 20260505192035 | 11 | 101 | 9.7 | 27.4 | 0.00 | 0.00 | 0.00 | 78 | 1026.9 |
| 20260505191550 | 11 | 123 | 11.3 | 27.4 | 0.00 | 0.00 | 0.00 | 78 | 1026.9 |
| 20260505191034 | 11 | 107 | 9.7 | 25.7 | 0.00 | 0.00 | 0.00 | 78 | 1026.8 |
| 20260505190535 | 11 | 149 | 11.3 | 25.7 | 0.00 | 0.00 | 0.00 | 77 | 1026.8 |
| 20260505190043 | 12 | 99 | 8.0 | 25.7 | 0.00 | 0.00 | 0.00 | 77 | 1026.7 |
| 20260505185539 | 12 | 112 | 9.7 | 25.7 | 0.00 | 0.00 | 0.00 | 77 | 1026.8 |
| 20260505185036 | 12 | 123 | 12.9 | 25.7 | 0.00 | 0.00 | 0.00 | 76 | 1026.7 |
| 20260505184547 | 12 | 77 | 9.7 | 24.1 | 0.00 | 0.00 | 0.00 | 76 | 1026.8 |
| 20260505184036 | 12 | 122 | 11.3 | 25.7 | 0.00 | 0.00 | 0.00 | 76 | 1026.7 |
| 20260505183537 | 12 | 105 | 9.7 | 25.7 | 0.00 | 0.00 | 0.00 | 76 | 1026.7 |
| 20260505183045 | 12 | 94 | 9.7 | 25.7 | 0.00 | 0.00 | 0.00 | 75 | 1026.7 |
| 20260505182538 | 12 | 110 | 9.7 | 25.7 | 0.00 | 0.00 | 0.00 | 75 | 1026.8 |
| 20260505182035 | 12 | 104 | 11.3 | 24.1 | 0.00 | 0.00 | 0.00 | 75 | 1026.8 |
| 20260505181540 | 12 | 81 | 12.9 | 25.7 | 0.00 | 0.00 | 0.00 | 74 | 1026.7 |
| 20260505181039 | 12 | 80 | 11.3 | 25.7 | 0.00 | 0.00 | 0.00 | 74 | 1026.7 |
| 20260505180539 | 12 | 91 | 12.9 | 25.7 | 0.00 | 0.00 | 0.00 | 74 | 1026.7 |
| 20260505180042 | 12 | 97 | 9.7 | 30.6 | 0.00 | 0.00 | 0.00 | 74 | 1026.7 |
| 20260505175537 | 12 | 145 | 16.1 | 30.6 | 0.00 | 0.00 | 0.00 | 74 | 1026.6 |
| 20260505175035 | 12 | 118 | 11.3 | 29.0 | 0.00 | 0.00 | 0.00 | 73 | 1026.6 |
| 20260505174544 | 12 | 111 | 9.7 | 29.0 | 0.00 | 0.00 | 0.00 | 73 | 1026.6 |
| 20260505174036 | 12 | 97 | 9.7 | 30.6 | 0.00 | 0.00 | 0.00 | 73 | 1026.5 |
| 20260505173535 | 12 | 88 | 12.9 | 30.6 | 0.00 | 0.00 | 0.00 | 73 | 1026.5 |
| 20260505173039 | 12 | 60 | 14.5 | 27.4 | 0.00 | 0.00 | 0.00 | 72 | 1026.5 |
| 20260505172535 | 12 | 88 | 11.3 | 27.4 | 0.00 | 0.00 | 0.00 | 72 | 1026.5 |
| 20260505172035 | 13 | 109 | 12.9 | 30.6 | 0.00 | 0.00 | 0.00 | 72 | 1026.5 |
| 20260505171540 | 13 | 103 | 12.9 | 30.6 | 0.00 | 0.00 | 0.00 | 72 | 1026.5 |
| 20260505171036 | 13 | 66 | 12.9 | 30.6 | 0.00 | 0.00 | 0.00 | 72 | 1026.4 |
| 20260505170535 | 13 | 109 | 12.9 | 30.6 | 0.00 | 0.00 | 0.00 | 71 | 1026.3 |
| 20260505170040 | 13 | 100 | 11.3 | 32.2 | 0.00 | 0.00 | 0.00 | 71 | 1026.3 |
| 20260505165535 | 13 | 79 | 11.3 | 32.2 | 0.00 | 0.00 | 0.00 | 71 | 1026.3 |
| 20260505165037 | 13 | 72 | 12.9 | 25.7 | 0.00 | 0.00 | 0.00 | 71 | 1026.3 |
| 20260505164540 | 13 | 72 | 9.7 | 25.7 | 0.00 | 0.00 | 0.00 | 70 | 1026.4 |
| 20260505164036 | 13 | 125 | 11.3 | 25.7 | 0.00 | 0.00 | 0.00 | 70 | 1026.3 |
| 20260505163537 | 13 | 131 | 11.3 | 25.7 | 0.00 | 0.00 | 0.00 | 70 | 1026.2 |
| 20260505163046 | 13 | 122 | 9.7 | 25.7 | 0.00 | 0.00 | 0.00 | 70 | 1026.3 |
| 20260505162539 | 13 | 118 | 9.7 | 29.0 | 0.00 | 0.00 | 0.00 | 70 | 1026.2 |
| 20260505162035 | 14 | 67 | 9.7 | 29.0 | 0.00 | 0.00 | 0.00 | 69 | 1026.2 |
| 20260505161546 | 14 | 91 | 9.7 | 29.0 | 0.00 | 0.00 | 0.00 | 69 | 1026.1 |
| 20260505161036 | 14 | 82 | 9.7 | 24.1 | 0.00 | 0.00 | 0.00 | 69 | 1026.2 |
| 20260505160535 | 14 | 116 | 12.9 | 24.1 | 0.00 | 0.00 | 0.00 | 68 | 1026.0 |
| 20260505153053 | 15 | 130 | 8.0 | 20.9 | 0.00 | 0.00 | 0.00 | 67 | 1026.1 |
| 20260505152536 | 15 | 139 | 8.0 | 20.9 | 0.00 | 0.00 | 0.00 | 66 | 1026.1 |
| 20260505152035 | 15 | 89 | 6.4 | 20.9 | 0.00 | 0.00 | 0.00 | 66 | 1026.2 |
| 20260505151545 | 15 | 119 | 6.4 | 20.9 | 0.00 | 0.00 | 0.00 | 66 | 1026.1 |
| 20260505151035 | 15 | 133 | 6.4 | 24.1 | 0.00 | 0.00 | 0.00 | 66 | 1026.2 |
| 20260505150535 | 15 | 120 | 4.8 | 24.1 | 0.00 | 0.00 | 0.00 | 67 | 1026.1 |
| 20260505140535 | 15 | 122 | 4.8 | 12.9 | 0.00 | 0.00 | 0.00 | 66 | 1026.4 |